• Join FlightAware (Why Join?)
  • Login
  • US Flag 
01:48PM EDT


 

Airport Tracker/Info


-or-


 

Live Flight TrackerFlight Track Log ✈ GJS3618 ✈ 28-Aug-2013 ✈ KOMA - KDEN

Flight Track Log - Related Links

Times and Time Zones

All times are in EDT time to prevent confusion due to time zone crossing. See the GJS3618 flight status page for this flight to view local times or setup timezone preferences in your user account.

Time Position Orientation Groundspeed Altitude Reporting Facility
EDT Latitude Longitude Course Direction KTS MPH feet Rate Location/Type
07:20AM 41.2928 -95.8892 278° West 151 174 1,600  Level Minneapolis Center
07:22AM 41.2492 -95.9175 206° Southwest 207 238 3,600 1,560 Climbing Minneapolis Center
07:23AM 41.2525 -95.9989 273° West 215 247 5,500 1,800 Climbing Minneapolis Center
07:24AM 41.3167 -96.4426 270° West  Level FlightAware Approximate
07:24AM 41.2597 -96.1033 275° West 261 300 7,300  Level Minneapolis Center
07:25AM 41.3167 -96.5826 270° West  Level FlightAware Approximate
07:25AM 41.2664 -96.2167 275° West 291 335 9,500  Level Minneapolis Center
07:26AM 41.3256 -96.7219 278° West  Level FlightAware Approximate
07:26AM 41.2711 -96.3417 273° West 328 377 11,600  Level Minneapolis Center
07:27AM 41.2586 -96.4692 263° West 343 395 13,500 1,800 Climbing Minneapolis Center
07:28AM 41.2464 -96.6014 263° West 355 409 15,300 1,740 Climbing Minneapolis Center
07:29AM 41.2333 -96.7375 263° West 367 422 17,100 1,680 Climbing Minneapolis Center
07:30AM 41.2206 -96.8742 263° West 372 428 18,800 1,500 Climbing Minneapolis Center
07:31AM 41.2075 -97.0139 263° West 378 435 20,200 1,260 Climbing Minneapolis Center
07:32AM 41.1928 -97.1572 262° West 389 448 21,400 1,140 Climbing Minneapolis Center
07:33AM 41.1772 -97.3053 262° West 400 460 22,600 1,140 Climbing Minneapolis Center
07:34AM 41.1628 -97.4536 263° West 410 472 23,800 1,140 Climbing Minneapolis Center
07:35AM 41.1469 -97.6061 262° West 416 479 25,000 1,140 Climbing Minneapolis Center
07:36AM 41.1303 -97.7592 262° West 418 481 26,200 1,320 Climbing Minneapolis Center
07:37AM 41.1103 -97.9461 262° West 424 488 27,700 1,260 Climbing Minneapolis Center
07:38AM 41.0928 -98.1036 262° West 429 494 28,800 1,020 Climbing Minneapolis Center
07:39AM 41.0758 -98.2617 262° West 431 496 29,800 960 Climbing Minneapolis Center
07:40AM 41.0578 -98.4211 262° West 435 501 30,800 960 Climbing Minneapolis Center
07:41AM 41.0400 -98.5858 262° West 441 507 31,800 960 Climbing Minneapolis Center
07:42AM 41.0192 -98.7461 260° West 443 510 32,800 780 Climbing Minneapolis Center
07:43AM 40.9997 -98.9117 261° West 452 520 33,500 600 Climbing Minneapolis Center
07:44AM 40.9828 -99.0775 262° West 455 524 34,100 660 Climbing Minneapolis Center
07:45AM 40.9694 -99.1886 261° West 457 526 34,700 840 Climbing Denver Center
07:46AM 40.9475 -99.3525 260° West 455 524 35,600 900 Climbing Denver Center
07:47AM 40.9233 -99.5158 259° West 452 520 36,600 900 Climbing Denver Center
07:48AM 40.8997 -99.6781 259° West 450 518 37,500 660 Climbing Denver Center
07:49AM 40.8725 -99.8653 259° West 442 509 38,000 240 Climbing Denver Center
07:50AM 40.8497 -100.0144 259° West 435 501 38,000  Level Denver Center
07:51AM 40.8267 -100.1650 259° West 436 502 38,000  Level Denver Center
07:52AM 40.8036 -100.3156 259° West 436 502 38,000  Level Denver Center
07:53AM 40.7764 -100.4911 258° West 437 503 38,000  Level Denver Center
07:54AM 40.7503 -100.6425 257° West 436 502 38,000  Level Denver Center
07:55AM 40.7250 -100.8047 258° West 455 524 38,000  Level Denver Center
07:56AM 40.7006 -100.9622 258° West 454 522 38,000  Level Denver Center
07:57AM 40.6764 -101.1161 258° West 449 517 38,000  Level Denver Center
07:58AM 40.6475 -101.2967 258° West 451 519 38,000  Level Denver Center
07:59AM 40.6225 -101.4525 258° West 454 522 38,000  Level Denver Center
08:00AM 40.5964 -101.6081 258° West 455 524 38,000  Level Denver Center
08:01AM 40.5669 -101.7872 258° West 451 519 38,000  Level Denver Center
08:02AM 40.5408 -101.9403 257° West 449 517 38,000  Level Denver Center
08:03AM 40.5153 -102.0925 258° West 448 516 38,000 -660 Level Denver Center
08:04AM 40.4858 -102.2719 258° West 452 520 36,700 -1,500 Descending Denver Center
08:05AM 40.4578 -102.4258 257° West 454 522 35,000 -1,740 Descending Denver Center
08:06AM 40.4317 -102.5842 258° West 462 532 33,200 -1,920 Descending Denver Center
08:07AM 40.4019 -102.7506 257° West 457 526 31,200 -1,980 Descending Denver Center
08:08AM 40.3739 -102.9075 257° West 445 512 29,300 -1,920 Descending Denver Center
08:09AM 40.3478 -103.0603 257° West 433 498 27,400 -1,980 Descending Denver Center
08:10AM 40.3208 -103.2061 256° West 414 476 25,400 -1,920 Descending Denver Center
08:11AM 40.2961 -103.3450 257° West 394 453 23,600 -1,860 Descending Denver Center
08:12AM 40.2717 -103.4808 257° West 386 444 21,700 -1,980 Descending Denver Center
08:13AM 40.2464 -103.6158 256° West 385 443 19,700 -1,980 Descending Denver Center
08:14AM 40.2167 -103.7614 255° West 388 447 17,800 -1,920 Descending Denver Center
08:15AM 40.2069 -103.8961 265° West 375 432 15,900 -1,920 Descending Denver Center
08:16AM 40.1978 -104.0300 265° West 372 428 14,000 -1,440 Descending Denver Center
08:17AM 40.1919 -104.1686 267° West 384 442 13,000 -1,080 Descending Denver Center
08:18AM 40.1822 -104.3144 265° West 376 433 11,900 -1,080 Descending Denver Center
08:19AM 40.1328 -104.4194 238° Southwest 333 383 10,900 -1,380 Descending Denver Center
08:20AM 40.0831 -104.5069 233° Southwest 297 342 9,200 -1,740 Descending Denver Center
08:21AM 40.0344 -104.5931 234° Southwest 295 339 7,400 -1,140 Descending Denver Center
08:22AM 39.9978 -104.6650 236° Southwest 236 272 7,000 -480 Descending Denver Center
08:23AM 39.9583 -104.6856 202° Southwest 167 192 6,500 -660 Descending Denver Center
08:24AM 39.9114 -104.6867 181° South 158 182 5,700 -600 Descending Denver Center
08:25AM 39.8794 -104.6878 182° South 133 153 5,300 -420 Descending Denver Center